Polar Ranger — WDC8652 — position and weather

sailwx.info

Track history (hours):
 
Tides and Currents Weather Stations Pressure Air Temp Water Temp Dewpoint Dewpoint Depression Visibility Wind Speed Wind Dir Waves Ship Positions

Polar Ranger

Owner: Dunlap Towing Co., LaConner, WA. More information available from US FCC via Universal Licensing System and Coast Guard Vessel Documentation Center.

Last reported at 2017-Aug-20 18:27 UTC. Time now 2017-Nov-23 03:48 UTC.
Position N 47°59' W 122°13'.
Warning: this ship's position is months out of date.

Type: Towing. MMSI: 367090860.

Date/timePositionNaut miles runAvg speedWind from/ knotsBaromVisibWave heightAir tempDewpointWater temp
2017-Aug-20 18:27N 47°59' W 122°13'2 4.2
2017-Aug-20 18:00N 47°58' W 122°16'613.0
2017-Aug-20 17:31N 47°53' W 122°22'713.5
2017-Aug-20 17:00N 47°47' W 122°25'714.0
2017-Aug-20 16:30N 47°40' W 122°27'611.0
2017-Aug-20 16:00N 47°36' W 122°22'0 0.6
2017-Aug-20 15:30N 47°36' W 122°22'0 0.1
2017-Aug-20 15:00N 47°36' W 122°22'0 0.8
2017-Aug-20 14:30N 47°36' W 122°23'1 1.6
2017-Aug-20 14:00N 47°37' W 122°24'1 2.2
2017-Aug-20 13:30N 47°37' W 122°25'2 4.3
2017-Aug-20 13:00N 47°39' W 122°27'2 4.9
2017-Aug-20 12:30N 47°41' W 122°28'3 5.5
2017-Aug-20 12:00N 47°44' W 122°28'3 5.3
2017-Aug-20 11:30N 47°46' W 122°27'2 4.8
2017-Aug-20 11:00N 47°49' W 122°28'2 4.7
2017-Aug-20 10:30N 47°51' W 122°29'2 4.8
2017-Aug-20 10:00N 47°53' W 122°30'2 4.6
2017-Aug-20 09:30N 47°56' W 122°31'3 6.3
2017-Aug-20 09:00N 47°57' W 122°35'3 5.3
2017-Aug-20 08:30N 47°60' W 122°37'8 5.6
2017-Aug-20 07:08N 48°07' W 122°41'1 6.3
2017-Aug-20 06:58N 48°08' W 122°42'4 6.9
2017-Aug-20 06:23N 48°10' W 122°46'2 6.0
2017-Aug-20 05:59N 48°11' W 122°50'3 5.4
2017-Aug-20 05:30N 48°11' W 122°54'3 5.7
2017-Aug-20 04:59N 48°12' W 122°58'3 6.3
2017-Aug-20 04:30N 48°12' W 123°03'3 6.0
2017-Aug-20 04:00N 48°12' W 123°07'3 5.4
2017-Aug-20 03:29N 48°12' W 123°11'3 5.4
2017-Aug-20 03:00N 48°12' W 123°15'3 5.0
2017-Aug-20 02:30N 48°12' W 123°19'3 5.2
2017-Aug-20 01:59N 48°12' W 123°23'3 6.4
2017-Aug-20 01:30N 48°12' W 123°28'4 6.4
2017-Aug-20 00:57N 48°12' W 123°33'3 6.3
2017-Aug-20 00:30N 48°12' W 123°37'3 7.0
2017-Aug-20 00:00N 48°12' W 123°42'3 6.7
2017-Aug-19 23:30N 48°12' W 123°47'3 6.6
2017-Aug-19 23:00N 48°12' W 123°52'4 7.2
2017-Aug-19 22:30N 48°13' W 123°58'4 7.7
2017-Aug-19 22:00N 48°15' W 124°03'4 7.8
2017-Aug-19 21:30N 48°16' W 124°08'4 7.6
2017-Aug-19 21:00N 48°18' W 124°13'4 7.8
2017-Aug-19 20:30N 48°19' W 124°19'4 8.4
2017-Aug-19 20:00N 48°21' W 124°24'4 8.6
2017-Aug-19 19:30N 48°23' W 124°30'4 8.3
2017-Aug-19 19:00N 48°25' W 124°36'4 7.5
2017-Aug-19 18:30N 48°27' W 124°41'4 7.5
2017-Aug-19 18:00N 48°27' W 124°47'4 7.4
2017-Aug-19 17:30N 48°27' W 124°52'4 7.7
2017-Aug-19 16:59N 48°27' W 124°58'4 7.3
2017-Aug-19 16:30N 48°30' W 125°02'4 6.8
2017-Aug-19 15:59N 48°32' W 125°05'3 6.4
2017-Aug-19 15:30N 48°34' W 125°09'3 6.2
2017-Aug-19 15:00N 48°36' W 125°13'6 6.1
2017-Aug-19 14:00N 48°39' W 125°20'3 6.1
2017-Aug-19 13:30N 48°41' W 125°24'3 6.5
2017-Aug-19 13:00N 48°43' W 125°28'3 6.8
2017-Aug-19 12:30N 48°44' W 125°33'4 7.2
2017-Aug-19 12:00N 48°46' W 125°37'4 7.4
2017-Aug-19 11:30N 48°48' W 125°42'4 7.4
2017-Aug-19 11:00N 48°50' W 125°47'4 7.3
2017-Aug-19 10:30N 48°52' W 125°51'4 7.2
2017-Aug-19 10:00N 48°54' W 125°56'3 6.8
2017-Aug-19 09:30N 48°56' W 126°00'3 7.0
2017-Aug-19 09:00N 48°59' W 126°04'3 6.8
2017-Aug-19 08:30N 49°01' W 126°08'4 7.3
2017-Aug-19 08:00N 49°03' W 126°12'4 7.3
2017-Aug-19 07:30N 49°05' W 126°17'4 7.6
2017-Aug-19 07:00N 49°07' W 126°22'4 7.7
2017-Aug-19 06:28N 49°10' W 126°27'4 7.5
2017-Aug-19 05:59N 49°12' W 126°31'4 7.7
2017-Aug-19 05:30N 49°14' W 126°36'4 8.0
2017-Aug-19 05:00N 49°17' W 126°40'4 7.9
2017-Aug-19 04:30N 49°20' W 126°45'4 7.6
2017-Aug-19 03:59N 49°22' W 126°49'4 7.6
2017-Aug-19 03:25N 49°25' W 126°54'107 6.4
2017-Aug-18 10:43N 50°58' W 128°17'2 7.0
2017-Aug-18 10:28N 50°59' W 128°15'4 7.1
2017-Aug-18 09:58N 51°01' W 128°11'3 6.8
2017-Aug-18 09:28N 51°04' W 128°07'4 6.9
2017-Aug-18 08:53N 51°06' W 128°03'5 6.9
2017-Aug-18 08:08N 51°11' W 127°58'1 6.7
2017-Aug-18 07:57N 51°12' W 127°57'3 7.0
2017-Aug-18 07:30N 51°14' W 127°54'4 7.2
2017-Aug-18 06:59N 51°18' W 127°55'3 6.8
2017-Aug-18 06:29N 51°21' W 127°53'3 6.7
2017-Aug-18 06:00N 51°24' W 127°52'4 7.5
2017-Aug-18 05:30N 51°28' W 127°51'4 7.6
2017-Aug-18 05:00N 51°32' W 127°52'4 7.7
2017-Aug-18 04:30N 51°36' W 127°53'4 7.4
2017-Aug-18 04:00N 51°39' W 127°55'3 7.0
2017-Aug-18 03:30N 51°43' W 127°55'4 7.0
2017-Aug-18 03:00N 51°46' W 127°55'3 6.7
2017-Aug-18 02:30N 51°49' W 127°56'3 6.7
2017-Aug-18 02:00N 51°53' W 127°56'3 6.9
2017-Aug-18 01:30N 51°56' W 127°56'3 6.6
2017-Aug-18 01:00N 51°59' W 127°56'3 5.2
2017-Aug-18 00:30N 52°02' W 127°55'4 7.4
2017-Aug-18 00:00N 52°06' W 127°54'3 5.7
2017-Aug-17 23:30N 52°08' W 127°53'12 5.4
2017-Aug-17 21:12N 52°17' W 128°07'2 7.1
2017-Aug-17 20:54N 52°16' W 128°10'8 7.0
2017-Aug-17 19:48N 52°15' W 128°22'3 7.2
2017-Aug-17 19:21N 52°16' W 128°27'10 8.1
2017-Aug-17 18:08N 52°15' W 128°43'1 7.4
2017-Aug-17 18:00N 52°15' W 128°45'  
2017-Aug-14 13:43N 58°15' W 135°33'1 4.8
2017-Aug-14 13:25N 58°16' W 135°35'2 4.7
2017-Aug-14 12:57N 58°17' W 135°39'2 4.9
2017-Aug-14 12:29N 58°18' W 135°43'3 6.0
2017-Aug-14 12:00N 58°19' W 135°49'3 6.7
2017-Aug-14 11:30N 58°17' W 135°54'4 7.4
2017-Aug-14 11:00N 58°16' W 136°01'5 7.3
2017-Aug-14 10:18N 58°16' W 136°11'2 6.4
2017-Aug-14 09:58N 58°17' W 136°14'100 9.1
2017-Aug-13 23:00N 58°18' W 139°24'   230 / 201004.0 5.4 15.6 15.6
Track history (hours):
 
Tides and Currents Weather Stations Pressure Air Temp Water Temp Dewpoint Dewpoint Depression Visibility Wind Speed Wind Dir Waves Ship Positions

Polar Ranger

Owner: Dunlap Towing Co., LaConner, WA. More information available from US FCC via Universal Licensing System and Coast Guard Vessel Documentation Center.

Last reported at 2017-Aug-20 18:27 UTC. Time now 2017-Nov-23 03:48 UTC.
Position N 47°59' W 122°13'.
Warning: this ship's position is months out of date.

Type: Towing. MMSI: 367090860.

Date/timePositionNaut miles runAvg speedWind from/ knotsBaromVisibWave heightAir tempDewpointWater temp
2017-Aug-20 18:27N 47°59' W 122°13'2 4.2
2017-Aug-20 18:00N 47°58' W 122°16'613.0
2017-Aug-20 17:31N 47°53' W 122°22'713.5
2017-Aug-20 17:00N 47°47' W 122°25'714.0
2017-Aug-20 16:30N 47°40' W 122°27'611.0
2017-Aug-20 16:00N 47°36' W 122°22'0 0.6
2017-Aug-20 15:30N 47°36' W 122°22'0 0.1
2017-Aug-20 15:00N 47°36' W 122°22'0 0.8
2017-Aug-20 14:30N 47°36' W 122°23'1 1.6
2017-Aug-20 14:00N 47°37' W 122°24'1 2.2
2017-Aug-20 13:30N 47°37' W 122°25'2 4.3
2017-Aug-20 13:00N 47°39' W 122°27'2 4.9
2017-Aug-20 12:30N 47°41' W 122°28'3 5.5
2017-Aug-20 12:00N 47°44' W 122°28'3 5.3
2017-Aug-20 11:30N 47°46' W 122°27'2 4.8
2017-Aug-20 11:00N 47°49' W 122°28'2 4.7
2017-Aug-20 10:30N 47°51' W 122°29'2 4.8
2017-Aug-20 10:00N 47°53' W 122°30'2 4.6
2017-Aug-20 09:30N 47°56' W 122°31'3 6.3
2017-Aug-20 09:00N 47°57' W 122°35'3 5.3
2017-Aug-20 08:30N 47°60' W 122°37'8 5.6
2017-Aug-20 07:08N 48°07' W 122°41'1 6.3
2017-Aug-20 06:58N 48°08' W 122°42'4 6.9
2017-Aug-20 06:23N 48°10' W 122°46'2 6.0
2017-Aug-20 05:59N 48°11' W 122°50'3 5.4
2017-Aug-20 05:30N 48°11' W 122°54'3 5.7
2017-Aug-20 04:59N 48°12' W 122°58'3 6.3
2017-Aug-20 04:30N 48°12' W 123°03'3 6.0
2017-Aug-20 04:00N 48°12' W 123°07'3 5.4
2017-Aug-20 03:29N 48°12' W 123°11'3 5.4
2017-Aug-20 03:00N 48°12' W 123°15'3 5.0
2017-Aug-20 02:30N 48°12' W 123°19'3 5.2
2017-Aug-20 01:59N 48°12' W 123°23'3 6.4
2017-Aug-20 01:30N 48°12' W 123°28'4 6.4
2017-Aug-20 00:57N 48°12' W 123°33'3 6.3
2017-Aug-20 00:30N 48°12' W 123°37'3 7.0
2017-Aug-20 00:00N 48°12' W 123°42'3 6.7
2017-Aug-19 23:30N 48°12' W 123°47'3 6.6
2017-Aug-19 23:00N 48°12' W 123°52'4 7.2
2017-Aug-19 22:30N 48°13' W 123°58'4 7.7
2017-Aug-19 22:00N 48°15' W 124°03'4 7.8
2017-Aug-19 21:30N 48°16' W 124°08'4 7.6
2017-Aug-19 21:00N 48°18' W 124°13'4 7.8
2017-Aug-19 20:30N 48°19' W 124°19'4 8.4
2017-Aug-19 20:00N 48°21' W 124°24'4 8.6
2017-Aug-19 19:30N 48°23' W 124°30'4 8.3
2017-Aug-19 19:00N 48°25' W 124°36'4 7.5
2017-Aug-19 18:30N 48°27' W 124°41'4 7.5
2017-Aug-19 18:00N 48°27' W 124°47'4 7.4
2017-Aug-19 17:30N 48°27' W 124°52'4 7.7
2017-Aug-19 16:59N 48°27' W 124°58'4 7.3
2017-Aug-19 16:30N 48°30' W 125°02'4 6.8
2017-Aug-19 15:59N 48°32' W 125°05'3 6.4
2017-Aug-19 15:30N 48°34' W 125°09'3 6.2
2017-Aug-19 15:00N 48°36' W 125°13'6 6.1
2017-Aug-19 14:00N 48°39' W 125°20'3 6.1
2017-Aug-19 13:30N 48°41' W 125°24'3 6.5
2017-Aug-19 13:00N 48°43' W 125°28'3 6.8
2017-Aug-19 12:30N 48°44' W 125°33'4 7.2
2017-Aug-19 12:00N 48°46' W 125°37'4 7.4
2017-Aug-19 11:30N 48°48' W 125°42'4 7.4
2017-Aug-19 11:00N 48°50' W 125°47'4 7.3
2017-Aug-19 10:30N 48°52' W 125°51'4 7.2
2017-Aug-19 10:00N 48°54' W 125°56'3 6.8
2017-Aug-19 09:30N 48°56' W 126°00'3 7.0
2017-Aug-19 09:00N 48°59' W 126°04'3 6.8
2017-Aug-19 08:30N 49°01' W 126°08'4 7.3
2017-Aug-19 08:00N 49°03' W 126°12'4 7.3
2017-Aug-19 07:30N 49°05' W 126°17'4 7.6
2017-Aug-19 07:00N 49°07' W 126°22'4 7.7
2017-Aug-19 06:28N 49°10' W 126°27'4 7.5
2017-Aug-19 05:59N 49°12' W 126°31'4 7.7
2017-Aug-19 05:30N 49°14' W 126°36'4 8.0
2017-Aug-19 05:00N 49°17' W 126°40'4 7.9
2017-Aug-19 04:30N 49°20' W 126°45'4 7.6
2017-Aug-19 03:59N 49°22' W 126°49'4 7.6
2017-Aug-19 03:25N 49°25' W 126°54'107 6.4
2017-Aug-18 10:43N 50°58' W 128°17'2 7.0
2017-Aug-18 10:28N 50°59' W 128°15'4 7.1
2017-Aug-18 09:58N 51°01' W 128°11'3 6.8
2017-Aug-18 09:28N 51°04' W 128°07'4 6.9
2017-Aug-18 08:53N 51°06' W 128°03'5 6.9
2017-Aug-18 08:08N 51°11' W 127°58'1 6.7
2017-Aug-18 07:57N 51°12' W 127°57'3 7.0
2017-Aug-18 07:30N 51°14' W 127°54'4 7.2
2017-Aug-18 06:59N 51°18' W 127°55'3 6.8
2017-Aug-18 06:29N 51°21' W 127°53'3 6.7
2017-Aug-18 06:00N 51°24' W 127°52'4 7.5
2017-Aug-18 05:30N 51°28' W 127°51'4 7.6
2017-Aug-18 05:00N 51°32' W 127°52'4 7.7
2017-Aug-18 04:30N 51°36' W 127°53'4 7.4
2017-Aug-18 04:00N 51°39' W 127°55'3 7.0
2017-Aug-18 03:30N 51°43' W 127°55'4 7.0
2017-Aug-18 03:00N 51°46' W 127°55'3 6.7
2017-Aug-18 02:30N 51°49' W 127°56'3 6.7
2017-Aug-18 02:00N 51°53' W 127°56'3 6.9
2017-Aug-18 01:30N 51°56' W 127°56'3 6.6
2017-Aug-18 01:00N 51°59' W 127°56'3 5.2
2017-Aug-18 00:30N 52°02' W 127°55'4 7.4
2017-Aug-18 00:00N 52°06' W 127°54'3 5.7
2017-Aug-17 23:30N 52°08' W 127°53'12 5.4
2017-Aug-17 21:12N 52°17' W 128°07'2 7.1
2017-Aug-17 20:54N 52°16' W 128°10'8 7.0
2017-Aug-17 19:48N 52°15' W 128°22'3 7.2
2017-Aug-17 19:21N 52°16' W 128°27'10 8.1
2017-Aug-17 18:08N 52°15' W 128°43'1 7.4
2017-Aug-17 18:00N 52°15' W 128°45'  
2017-Aug-14 13:43N 58°15' W 135°33'1 4.8
2017-Aug-14 13:25N 58°16' W 135°35'2 4.7
2017-Aug-14 12:57N 58°17' W 135°39'2 4.9
2017-Aug-14 12:29N 58°18' W 135°43'3 6.0
2017-Aug-14 12:00N 58°19' W 135°49'3 6.7
2017-Aug-14 11:30N 58°17' W 135°54'4 7.4
2017-Aug-14 11:00N 58°16' W 136°01'5 7.3
2017-Aug-14 10:18N 58°16' W 136°11'2 6.4
2017-Aug-14 09:58N 58°17' W 136°14'100 9.1
2017-Aug-13 23:00N 58°18' W 139°24'   230 / 201004.0 5.4 15.6 15.6

Dump ship's entire track history